Weather History for Saginaw Browne, MI

Change the Weather History Date:

Wednesday, October 10, 2012

  Actual Average (KMBS) Record (KMBS)
Temperature  
Mean Temperature 44 °F 52 °F  
Max Temperature 55 °F 62 °F 82 °F (2011)
Min Temperature 33 °F 42 °F 33 °F (2000)
Degree Days  
Heating Degree Days 21    
Month to date heating degree days  
Since 1 July heating degree days  
Cooling Degree Days 0    
Month to date cooling degree days  
Year to date cooling degree days  
Moisture  
Dew Point 34 °F    
Average Humidity 72    
Maximum Humidity 100    
Minimum Humidity 43    
Precipitation  
Precipitation 0.00 in 0.09 in 0.07 in (2012)
Month to date precipitation 0.95  
Year to date precipitation 25.30  
Snow  
Snow 0.00 in - - ()
Month to date snowfall  
Since 1 July snowfall  
Since 1 September snowfall  
Snow Depth -    
Sea Level Pressure  
Sea Level Pressure 29.91 in    
Wind  
Wind Speed 13 mph (West)    
Max Wind Speed 23 mph    
Max Gust Speed 32 mph    
Visibility 10 miles    
Events Rain    
T = Trace of Precipitation, MM = Missing Value Source: NWS Daily Summary

Daily Weather History Graph

Daily Weather History Graph

Search for Another Location

Airport:

Trip Planner

Search our weather history database for the weather conditions in past years. The results will help you decide how hot, cold, wet, or windy it might be!

Date:

Astronomy

Oct. 10, 2012 Rise Set
Actual Time 7:43 AM EDT 6:59 PM EDT
Civil Twilight 7:15 AM EDT 7:28 PM EDT
Nautical Twilight 6:42 AM EDT 8:01 PM EDT
Astronomical Twilight 6:09 AM EDT 8:34 PM EDT
Moon 2:10 AM EDT (10/10) 4:09 PM EDT (10/10)
Length of Visible Light 12h 13m
Length of Day
11h 15m
Waning Crescent, 27% of the Moon is Illuminated
Oct 10
Waning Crescent
Oct 15
New
Oct 21
First Quarter
Oct 29
Full
Nov 6
Last Quarter

Hourly Weather History & Observations

Time (EDT) Temp. Windchill Dew Point Humidity Pressure Visibility Wind Dir Wind Speed Gust Speed Precip Events Conditions
12:13 AM 55.4 °F - 35.6 °F 47% 29.73 in 10.0 mi South 16.1 mph 23.0 mph N/A   Overcast
12:33 AM 55.4 °F - 35.6 °F 47% 29.73 in 10.0 mi SSW 15.0 mph 23.0 mph N/A   Overcast
12:53 AM 55.4 °F - 35.6 °F 47% 29.74 in 10.0 mi SSW 10.4 mph 21.9 mph N/A   Overcast
1:13 AM 51.8 °F - 41.0 °F 67% 29.76 in 10.0 mi NW 21.9 mph 29.9 mph N/A   Overcast
1:33 AM 50.0 °F - 41.0 °F 71% 29.78 in 10.0 mi NW 17.3 mph 24.2 mph N/A   Overcast
1:54 AM 46.4 °F 39.8 °F 37.4 °F 71% 29.78 in 10.0 mi WNW 16.1 mph 25.3 mph N/A   Overcast
2:14 AM 46.4 °F 39.2 °F 37.4 °F 71% 29.79 in 10.0 mi WNW 18.4 mph 24.2 mph N/A Rain Light Rain
2:34 AM 44.6 °F 40.2 °F 42.8 °F 93% 29.80 in 5.0 mi WNW 8.1 mph 11.5 mph N/A Rain Rain
2:54 AM 44.6 °F 38.4 °F 42.8 °F 93% 29.81 in 5.0 mi West 12.7 mph - N/A Rain Light Rain
3:14 AM 42.8 °F 37.0 °F 42.8 °F 100% 29.81 in 10.0 mi West 10.4 mph - N/A Rain Light Rain
3:34 AM 42.8 °F 38.6 °F 41.0 °F 93% 29.81 in 10.0 mi West 6.9 mph - N/A Rain Light Rain
3:54 AM 42.8 °F 38.0 °F 41.0 °F 93% 29.81 in 10.0 mi West 8.1 mph - N/A Rain Light Rain
4:14 AM 42.8 °F 40.1 °F 41.0 °F 93% 29.81 in 10.0 mi WSW 4.6 mph - N/A Rain Light Rain
4:29 AM 41.0 °F 39.0 °F 41.0 °F 100% 29.80 in 10.0 mi West 3.5 mph - N/A Rain Light Rain
4:49 AM 41.0 °F 39.0 °F 41.0 °F 100% 29.80 in 10.0 mi WSW 3.5 mph - N/A   Light Drizzle
5:10 AM 41.0 °F 37.1 °F 41.0 °F 100% 29.81 in 10.0 mi WSW 5.8 mph - N/A Rain Light Rain
5:30 AM 41.0 °F 36.4 °F 41.0 °F 100% 29.81 in 10.0 mi WSW 6.9 mph - N/A   Light Drizzle
5:50 AM 41.0 °F 36.4 °F 41.0 °F 100% 29.81 in 10.0 mi WSW 6.9 mph - N/A   Overcast
6:10 AM 41.0 °F 37.1 °F 41.0 °F 100% 29.81 in 10.0 mi SW 5.8 mph - N/A   Overcast
6:30 AM 41.0 °F 36.4 °F 41.0 °F 100% 29.81 in 10.0 mi WSW 6.9 mph - N/A   Overcast
6:50 AM 41.0 °F 35.8 °F 41.0 °F 100% 29.82 in 10.0 mi WSW 8.1 mph - N/A   Overcast
7:10 AM 41.0 °F 38.0 °F 41.0 °F 100% 29.83 in 10.0 mi WSW 4.6 mph - N/A   Overcast
7:30 AM 41.0 °F 34.7 °F 41.0 °F 100% 29.83 in 10.0 mi WSW 10.4 mph - N/A   Overcast
7:50 AM 41.0 °F 36.4 °F 41.0 °F 100% 29.83 in 10.0 mi WSW 6.9 mph - N/A   Overcast
8:10 AM 41.0 °F 34.7 °F 39.2 °F 93% 29.84 in 10.0 mi WSW 10.4 mph - N/A   Mostly Cloudy
8:51 AM 41.0 °F 35.2 °F 41.0 °F 100% 29.85 in 10.0 mi WSW 9.2 mph - N/A   Scattered Clouds
9:31 AM 42.8 °F 37.5 °F 41.0 °F 93% 29.87 in 10.0 mi West 9.2 mph - N/A   Mostly Cloudy
9:51 AM 42.8 °F 36.6 °F 41.0 °F 93% 29.87 in 10.0 mi West 11.5 mph - N/A   Scattered Clouds
10:11 AM 44.6 °F 39.2 °F 41.0 °F 87% 29.87 in 10.0 mi West 10.4 mph 16.1 mph N/A   Scattered Clouds
10:31 AM 46.4 °F 40.4 °F 39.2 °F 76% 29.87 in 10.0 mi West 13.8 mph 19.6 mph N/A   Scattered Clouds
10:51 AM 46.4 °F 39.8 °F 37.4 °F 71% 29.88 in 10.0 mi West 16.1 mph 20.7 mph N/A   Scattered Clouds
11:11 AM 46.4 °F 40.1 °F 35.6 °F 66% 29.88 in 10.0 mi West 15.0 mph 23.0 mph N/A   Scattered Clouds
11:32 AM 46.4 °F 40.1 °F 33.8 °F 62% 29.88 in 10.0 mi West 15.0 mph 24.2 mph N/A   Scattered Clouds
11:52 AM 46.4 °F 39.8 °F 32.0 °F 57% 29.89 in 10.0 mi West 16.1 mph 25.3 mph N/A   Scattered Clouds
12:12 PM 46.4 °F 39.5 °F 32.0 °F 57% 29.89 in 10.0 mi West 17.3 mph 25.3 mph N/A   Mostly Cloudy
12:52 PM 48.2 °F - 32.0 °F 54% 29.90 in 10.0 mi West 16.1 mph 24.2 mph N/A   Overcast
1:12 PM 46.4 °F 38.5 °F 32.0 °F 57% 29.91 in 10.0 mi West 21.9 mph 28.8 mph N/A   Overcast
1:32 PM 46.4 °F 39.8 °F 32.0 °F 57% 29.91 in 10.0 mi West 16.1 mph 32.2 mph N/A   Overcast
1:52 PM 46.4 °F 39.8 °F 32.0 °F 57% 29.91 in 10.0 mi West 16.1 mph 23.0 mph N/A   Overcast
2:12 PM 46.4 °F 39.5 °F 32.0 °F 57% 29.91 in 10.0 mi WSW 17.3 mph 21.9 mph N/A   Overcast
2:32 PM 46.4 °F 39.0 °F 32.0 °F 57% 29.91 in 10.0 mi West 19.6 mph 27.6 mph N/A   Overcast
2:53 PM 46.4 °F 39.2 °F 32.0 °F 57% 29.92 in 10.0 mi West 18.4 mph 24.2 mph N/A   Overcast
3:13 PM 46.4 °F 38.3 °F 32.0 °F 57% 29.93 in 10.0 mi West 23.0 mph 29.9 mph N/A   Overcast
3:33 PM 46.4 °F 39.0 °F 32.0 °F 57% 29.94 in 10.0 mi West 19.6 mph 26.5 mph N/A   Overcast
3:53 PM 44.6 °F 38.4 °F 32.0 °F 61% 29.95 in 10.0 mi West 12.7 mph 23.0 mph N/A   Overcast
4:13 PM 44.6 °F 36.6 °F 32.0 °F 61% 29.95 in 10.0 mi West 19.6 mph 26.5 mph N/A   Overcast
4:33 PM 46.4 °F 39.2 °F 28.4 °F 50% 29.96 in 10.0 mi West 18.4 mph 27.6 mph N/A   Overcast
4:53 PM 44.6 °F 37.8 °F 26.6 °F 49% 29.97 in 10.0 mi West 15.0 mph 27.6 mph N/A   Overcast
5:13 PM 44.6 °F 37.4 °F 23.0 °F 43% 29.97 in 10.0 mi West 16.1 mph 26.5 mph N/A   Overcast
5:33 PM 44.6 °F 37.2 °F 23.0 °F 43% 29.98 in 10.0 mi West 17.3 mph 28.8 mph N/A   Overcast
5:53 PM 44.6 °F 36.1 °F 23.0 °F 43% 29.99 in 10.0 mi West 21.9 mph 25.3 mph N/A   Mostly Cloudy
6:14 PM 42.8 °F 35.8 °F 23.0 °F 46% 30.00 in 10.0 mi West 13.8 mph 26.5 mph N/A   Scattered Clouds
6:34 PM 42.8 °F 34.5 °F 23.0 °F 46% 30.01 in 10.0 mi West 18.4 mph 24.2 mph N/A   Clear
6:54 PM 42.8 °F 37.5 °F 24.8 °F 49% 30.02 in 10.0 mi West 9.2 mph 24.2 mph N/A   Clear
7:14 PM 41.0 °F 34.7 °F 26.6 °F 57% 30.04 in 10.0 mi West 10.4 mph 18.4 mph N/A   Clear
7:34 PM 41.0 °F 35.2 °F 26.6 °F 57% 30.05 in 10.0 mi West 9.2 mph 17.3 mph N/A   Clear
8:09 PM 41.0 °F 36.4 °F 26.6 °F 57% 30.06 in 10.0 mi West 6.9 mph 16.1 mph N/A   Clear
8:29 PM 39.2 °F 33.0 °F 26.6 °F 61% 30.07 in 10.0 mi West 9.2 mph - N/A   Clear
8:50 PM 37.4 °F 32.1 °F 28.4 °F 70% 30.08 in 10.0 mi WSW 6.9 mph - N/A   Clear
9:10 PM 37.4 °F 32.1 °F 28.4 °F 70% 30.09 in 10.0 mi WSW 6.9 mph - N/A   Clear
9:30 PM 37.4 °F 31.4 °F 28.4 °F 70% 30.09 in 10.0 mi WSW 8.1 mph - N/A   Clear
9:50 PM 37.4 °F 31.4 °F 28.4 °F 70% 30.10 in 10.0 mi WSW 8.1 mph - N/A   Clear
10:10 PM 37.4 °F 32.1 °F 28.4 °F 70% 30.10 in 10.0 mi WSW 6.9 mph - N/A   Scattered Clouds
10:30 PM 35.6 °F 31.7 °F 28.4 °F 75% 30.11 in 10.0 mi SW 4.6 mph - N/A   Mostly Cloudy
10:50 PM 35.6 °F 30.7 °F 28.4 °F 75% 30.11 in 10.0 mi SW 5.8 mph - N/A   Scattered Clouds
11:10 PM 33.8 °F 29.6 °F 28.4 °F 81% 30.11 in 10.0 mi SW 4.6 mph - N/A   Clear
11:30 PM 33.8 °F 28.6 °F 28.4 °F 81% 30.11 in 10.0 mi SW 5.8 mph - N/A   Clear
11:51 PM 33.8 °F 28.6 °F 30.2 °F 87% 30.12 in 10.0 mi SW 5.8 mph - N/A   Clear